Wind_Speed
15 15 15 16 17 18 19 20 21 22 23 24 24 25 24 24 21 19 17 15 12 11 10 10 10 11 4 3 9 4 4 12 13 10 9 12 14 13 8 9 8 4 3 5 7 6 5
16 15 15 16 17 18 19 20 22 23 24 25 26 26 26 26 24 20 17 13 11 9 8 8 8 7 2 4 5 5 5 11 12 13 11 18 10 12 6 8 7 5 5 7 9 4 5
16 16 16 16 17 18 19 21 23 24 25 26 27 27 27 27 26 21 17 13 10 8 6 6 5 3 5 12 1 4 10 8 14 15 9 23 16 5 10 10 11 8 6 9 9 4 1
16 16 16 16 18 18 20 21 23 25 27 27 28 29 29 28 27 22 16 11 8 6 6 6 3 2 7 9 8 8 10 14 12 13 21 22 12 8 6 11 13 12 6 6 6 7 6
16 16 16 17 18 19 20 22 24 26 28 28 29 29 30 30 28 23 14 9 5 4 3 2 1 3 8 5 6 11 13 16 18 18 20 13 6 5 10 8 9 8 8 2 4 8 4
16 16 17 18 18 19 21 23 25 27 28 29 30 30 31 31 29 23 11 6 5 2 2 2 8 5 8 6 9 16 13 13 9 7 6 6 2 5 6 4 7 8 3 0 3 6 7
16 16 17 18 18 20 21 24 26 28 30 30 31 31 31 31 30 22 7 3 1 1 7 9 7 5 5 5 12 10 12 3 8 5 6 8 4 7 14 12 13 13 6 7 7 8 5
16 17 17 18 19 20 22 25 27 30 31 31 31 31 32 32 30 16 3 4 6 10 7 16 16 16 23 11 5 7 13 6 5 6 8 6 9 14 15 14 10 11 5 8 8 7 3
17 18 18 19 20 21 24 26 29 31 32 31 31 32 32 30 28 9 8 13 13 12 4 9 13 9 6 6 9 11 11 9 7 9 10 10 14 11 16 6 8 9 5 6 9 5 7
17 18 19 19 21 23 25 28 30 32 33 32 32 32 31 30 9 5 8 6 5 11 3 5 7 9 9 8 7 16 20 9 6 9 10 8 13 10 8 4 6 6 10 9 8 6 4
17 18 19 20 22 24 27 29 31 33 34 33 32 32 29 24 17 7 13 11 10 6 3 13 8 9 9 9 3 7 25 7 10 10 5 10 10 8 8 7 5 6 8 7 6 8 6
17 18 20 22 24 26 28 31 33 34 35 35 32 34 29 8 10 13 10 11 12 1 6 10 8 8 7 8 13 5 7 5 6 9 10 12 12 10 4 4 5 5 5 8 6 1 4
17 19 21 23 25 27 29 32 34 35 37 38 35 33 26 13 6 8 11 9 2 4 6 10 7 12 8 9 10 9 9 7 4 4 7 14 18 17 9 5 4 6 3 4 4 2 7
18 20 23 25 27 28 29 32 34 35 38 40 38 26 16 19 7 8 9 1 5 9 13 8 12 16 10 9 11 11 9 7 11 10 7 7 10 7 8 8 7 6 6 5 5 4 7
19 22 25 27 27 27 29 32 33 36 39 42 34 10 4 7 11 9 1 4 4 5 8 10 1 6 8 11 9 13 11 11 11 14 8 3 1 7 7 2 9 4 4 10 4 6 4
22 25 27 27 26 26 29 31 33 37 40 34 18 7 12 8 12 10 2 5 4 8 8 11 4 3 7 8 11 9 5 8 8 2 4 5 6 6 9 5 8 6 5 5 4 2 6
24 26 26 26 26 25 28 29 32 37 40 17 4 3 12 18 16 1 4 6 11 4 7 6 8 9 13 5 6 6 3 6 16 8 7 6 3 11 6 3 5 2 5 5 2 3 3
25 26 25 25 25 26 27 28 31 36 38 12 7 3 13 17 3 3 5 6 4 6 5 3 6 5 7 10 6 8 8 5 9 11 4 6 2 5 8 7 12 6 7 6 6 10 4
25 24 24 24 25 26 27 28 30 34 35 11 4 4 14 15 3 6 9 15 2 7 8 3 5 9 9 7 5 6 5 7 8 6 3 5 5 4 10 10 17 4 3 6 4 2 4
23 22 23 24 24 26 28 29 31 33 33 6 3 3 2 3 5 11 13 5 6 4 3 6 8 8 7 6 8 5 6 6 11 6 5 2 2 1 3 7 7 14 18 18 8 4 8
21 21 22 23 24 26 28 29 32 33 28 4 3 3 5 1 6 8 7 8 2 4 1 5 4 4 6 5 8 8 12 12 8 4 6 5 3 6 9 14 14 14 16 19 16 13 10
20 20 21 22 23 25 27 29 32 34 20 1 4 4 7 7 9 4 4 2 7 10 6 6 12 12 13 8 6 7 9 7 4 9 8 7 5 8 8 10 12 11 16 18 20 20 19
19 20 20 21 22 24 26 28 30 32 20 7 12 9 3 7 7 3 4 8 11 9 6 9 9 6 11 9 8 7 7 7 7 5 4 2 1 3 5 7 8 4 12 12 8 20 16
19 19 19 20 21 22 25 26 26 26 25 6 11 7 3 5 7 6 11 8 13 8 4 9 6 6 4 8 9 8 8 9 8 8 5 1 3 2 1 7 4 6 9 9 5 13 13
18 18 18 19 20 21 23 25 26 23 20 12 8 7 3 4 8 10 9 10 6 3 2 4 7 2 6 7 3 4 4 4 5 3 4 4 2 2 2 2 7 8 11 8 7 5 9
17 17 17 18 19 19 21 23 25 24 21 10 7 13 3 4 7 9 9 4 4 5 4 4 6 4 4 3 2 2 2 3 4 5 10 9 7 4 3 3 4 3 10 7 6 2 7
16 16 16 17 18 18 20 22 24 23 20 17 5 15 5 3 4 5 4 4 4 6 3 6 4 4 5 2 2 2 2 2 3 3 4 4 4 2 4 2 3 6 8 7 5 6 6
14 15 15 15 16 16 18 20 22 22 20 19 5 14 8 3 3 6 6 5 5 6 4 5 4 5 5 3 4 3 4 2 2 2 2 2 1 3 4 4 3 8 5 5 3 7 9
13 14 14 15 14 15 17 18 20 19 17 15 6 16 16 4 4 9 4 2 3 4 3 5 3 4 3 3 4 3 4 5 3 1 5 4 2 1 3 3 5 8 7 11 9 7 7
Wind_Direction
30 26 25 23 22 19 15 13 11 8 5 2 360 357 355 351 344 335 330 323 314 304 301 303 307 324 350 232 250 180 197 198 208 223 238 259 282 293 355 331 8 297 52 359 304 294 341
21 19 19 16 14 13 10 8 6 5 2 359 357 356 352 350 347 338 330 322 312 304 299 294 303 325 316 268 134 143 167 180 193 203 245 260 271 315 309 310 303 294 12 285 275 282 331
18 14 12 11 9 7 6 5 3 1 359 357 355 352 350 348 346 339 328 320 309 302 291 284 296 353 270 246 348 211 185 197 200 214 239 258 295 349 328 317 323 323 294 270 250 188 233
13 11 8 6 5 4 2 1 0 359 356 354 352 350 347 346 344 339 325 316 305 296 285 277 272 130 250 306 228 240 217 200 212 231 254 273 3 352 311 291 302 290 258 268 208 174 172
8 7 5 3 2 1 360 358 357 356 353 350 350 348 346 344 342 339 324 311 303 315 299 252 208 205 272 205 218 225 231 203 198 224 244 273 43 288 303 277 286 267 248 150 223 170 187
5 4 2 360 359 359 357 356 355 353 351 349 347 345 343 342 340 338 323 310 294 268 336 322 268 278 271 232 186 216 218 208 182 215 235 241 221 231 284 276 260 291 348 145 39 232 195
2 1 358 356 356 356 355 354 353 351 350 348 345 344 341 340 339 334 324 342 297 213 236 208 204 234 170 134 159 188 222 248 178 191 221 241 197 236 246 249 256 277 330 4 296 274 269
359 358 356 354 354 353 352 351 350 348 348 346 343 340 338 337 334 328 271 249 292 324 289 227 242 249 270 140 174 221 191 200 208 222 230 271 233 234 247 259 287 306 350 312 296 293 345
357 356 355 353 352 351 349 348 348 346 345 345 341 339 335 334 327 311 224 240 290 308 280 275 197 233 210 187 228 196 168 222 233 213 237 205 248 233 228 267 326 303 246 247 253 287 354
355 354 353 351 350 349 346 345 345 344 342 342 339 337 334 333 326 323 243 331 300 273 301 248 186 222 201 185 245 238 178 191 230 252 266 242 254 255 297 267 217 284 295 323 349 20 280
353 353 351 350 348 346 344 343 342 340 339 338 336 334 328 328 298 290 334 351 338 309 302 148 172 184 174 177 94 234 171 191 253 270 321 263 288 300 238 242 301 246 318 310 318 320 331
353 352 350 348 346 343 341 341 339 337 336 335 332 330 322 330 285 280 292 322 304 293 248 176 137 182 167 215 268 129 150 175 237 266 282 273 279 278 250 266 327 325 340 301 297 242 326
354 351 348 345 342 340 339 340 338 335 334 333 326 324 307 269 223 339 311 263 289 238 159 149 171 160 202 198 244 169 177 198 197 257 270 271 255 245 230 248 245 290 309 318 332 358 225
351 349 346 342 340 338 339 340 338 335 334 334 325 316 286 259 238 288 287 301 250 280 313 214 159 163 177 200 212 230 181 204 214 218 256 272 322 139 197 188 191 257 193 169 281 274 273
348 346 343 341 340 340 341 340 338 336 336 336 329 325 261 264 207 226 277 232 245 318 66 323 152 186 195 200 201 207 200 205 222 197 194 294 168 294 122 150 146 261 260 235 256 283 338
347 344 342 342 341 341 341 342 341 338 338 337 327 303 253 216 167 205 206 249 284 273 19 341 336 337 319 224 201 181 209 224 228 123 193 360 356 304 148 170 241 186 240 358 337 270 274
343 342 342 343 342 344 344 345 345 342 341 341 307 260 146 159 163 208 226 245 287 314 41 323 342 338 333 71 268 289 23 20 16 73 71 21 47 298 347 223 339 19 301 302 197 168 205
342 343 346 346 345 348 347 348 350 351 348 360 301 265 154 161 171 211 233 246 256 353 66 295 322 316 322 359 23 218 85 53 37 37 24 356 236 307 281 307 64 19 16 35 291 327 275
343 347 348 348 347 349 349 351 352 357 358 344 294 286 169 191 239 245 257 259 94 352 7 319 341 0 18 360 351 28 102 89 48 58 72 344 334 8 342 344 358 360 341 312 306 46 298
346 348 349 348 349 350 352 353 352 355 352 335 278 273 152 195 262 286 290 316 159 97 285 3 343 334 349 322 313 315 353 127 97 112 135 72 334 60 227 288 343 349 345 344 347 338 306
348 350 352 352 352 354 355 356 353 353 348 183 225 305 355 175 234 258 276 359 17 134 47 106 291 273 40 358 354 26 12 12 75 34 22 36 26 23 348 347 342 336 341 336 329 313 301
350 350 352 354 354 356 358 1 358 358 360 206 350 349 338 297 319 329 36 339 324 38 26 25 29 9 48 48 17 353 3 14 8 0 8 359 338 356 337 339 342 335 354 23 14 14 2
349 350 352 353 355 358 1 4 5 4 21 355 7 329 293 280 294 318 33 22 48 26 81 63 27 355 49 4 329 301 287 281 279 290 296 323 322 15 295 303 319 12 14 33 19 34 23
348 348 351 354 355 358 1 5 9 9 13 348 343 316 284 307 336 46 25 12 61 46 9 357 67 21 17 317 302 288 262 251 245 260 245 328 33 26 340 25 337 129 29 35 61 49 31
345 346 348 352 355 357 360 4 7 7 6 355 339 355 331 310 356 31 29 21 45 121 296 10 51 13 310 302 301 289 244 276 240 193 75 88 82 69 89 247 263 49 6 354 13 22 31
342 344 345 349 353 356 359 2 5 5 5 12 27 8 308 295 24 1 333 13 318 329 157 127 62 337 287 251 254 260 1 114 51 3 41 35 54 75 348 314 303 292 337 335 276 323 347
337 341 344 347 350 354 357 1 3 3 3 358 316 7 297 286 25 348 29 343 340 340 324 45 347 317 224 299 299 334 89 96 50 28 26 25 351 316 316 313 113 284 332 301 44 320 353
331 337 341 343 347 351 354 358 2 2 0 2 309 17 13 320 328 4 16 28 355 17 13 309 341 346 1 356 17 359 37 59 358 7 87 67 55 32 13 360 28 358 17 50 310 336 348
323 329 336 339 340 345 350 354 0 3 359 4 326 358 346 235 294 319 318 353 2 336 339 324 83 30 23 357 2 9 1 18 45 72 41 56 97 150 59 114 63 4 26 358 351 335 337
Height
850 848 846 843 841 839 836 833 830 826 823 819 815 811 807 803 799 795 792 790 789 788 787 786 784 783 782 782 769 758 759 760 763 765 766 762 762 758 766 754 747 755 750 744 742 741 739
851 849 846 844 842 839 837 834 830 827 823 818 814 810 805 801 797 793 790 788 787 786 785 784 784 783 784 785 756 756 757 759 761 763 763 759 758 750 756 756 758 747 747 749 743 743 741
852 850 847 845 842 840 837 833 830 826 822 818 813 809 804 800 795 791 788 786 784 784 784 783 783 783 783 771 756 756 757 758 760 762 761 755 754 755 756 764 744 745 761 752 748 743 747
852 850 847 845 842 840 837 833 829 825 821 817 813 808 803 798 793 789 786 784 783 782 782 782 783 784 780 755 756 757 756 758 759 760 759 757 754 756 759 752 753 762 761 785 750 743 744
853 850 848 845 842 840 836 833 829 825 820 816 811 806 801 796 791 787 783 782 782 781 782 782 783 783 775 755 755 754 754 755 757 758 758 756 758 767 765 778 785 767 791 775 763 740 745
853 850 847 845 842 839 836 832 828 824 819 814 809 804 799 794 789 784 782 781 781 781 782 783 783 789 762 753 749 751 751 752 755 756 759 761 769 785 782 789 819 790 776 764 772 754 748
853 850 848 845 841 838 835 831 827 822 818 812 807 802 797 792 787 782 781 781 783 785 781 771 761 758 744 743 746 749 749 751 751 759 783 768 793 805 785 772 765 763 767 773 760 743 750
853 851 848 845 841 838 834 830 826 821 816 810 805 800 794 789 784 781 781 780 768 767 772 754 753 752 744 743 753 748 749 759 762 782 770 782 798 771 758 755 760 762 769 778 758 741 746
854 851 847 844 841 837 833 829 824 819 813 808 803 797 791 786 781 779 778 772 767 765 772 749 744 747 742 744 751 751 747 754 766 777 774 789 770 748 755 759 769 769 772 770 772 750 748
854 850 847 844 840 836 832 827 822 817 811 806 800 795 790 783 781 779 774 765 764 764 795 759 752 741 738 741 753 735 739 751 759 773 765 768 747 750 755 762 759 788 752 752 759 774 803
853 850 846 843 839 835 831 825 820 814 808 803 797 793 788 785 781 777 769 765 765 764 824 742 741 726 730 748 738 739 734 744 768 766 761 774 758 759 763 759 748 767 748 758 756 776 780
853 849 846 842 838 833 828 823 817 811 805 799 794 789 784 783 779 769 768 767 765 800 810 749 735 744 748 745 743 735 742 738 743 760 756 757 736 743 743 738 741 739 754 761 764 781 821
852 849 845 841 836 832 826 820 814 808 801 794 788 784 780 781 772 769 768 768 801 809 728 747 751 743 752 757 753 748 756 766 781 790 790 761 752 733 732 752 742 752 774 826 826 823 826
852 848 844 839 834 829 824 818 812 804 797 788 780 775 771 769 769 770 768 783 811 761 750 722 729 738 757 747 752 747 756 772 756 764 781 787 786 737 729 748 762 764 775 822 828 831 806
851 847 843 837 832 827 822 816 809 801 793 784 775 770 768 762 765 769 776 803 780 753 737 738 728 746 752 739 741 747 753 757 745 748 782 777 766 728 724 725 742 758 780 757 788 781 800
851 846 841 836 830 826 820 814 807 798 790 783 775 771 762 761 763 768 783 790 766 738 732 735 754 739 756 743 746 747 747 733 737 725 729 748 785 740 729 726 730 745 740 788 793 810 813
850 845 840 835 829 824 819 813 806 797 788 780 776 771 753 758 763 770 792 773 751 728 731 744 750 754 749 746 744 749 747 736 727 730 728 740 763 769 742 751 759 757 769 763 773 785 813
848 843 839 834 829 824 818 813 806 798 787 782 778 776 755 758 776 771 776 757 740 733 728 735 736 741 749 745 750 751 754 745 727 736 762 755 762 789 770 739 735 745 764 774 805 799 787
847 842 838 833 828 823 818 812 807 800 793 790 783 765 754 755 782 773 754 746 736 740 743 739 743 742 739 751 764 751 748 735 732 746 765 760 782 806 793 765 744 761 753 756 764 771 794
846 842 837 833 828 823 817 811 805 799 794 793 785 773 756 755 755 762 760 746 747 736 743 742 748 743 747 755 748 756 751 740 738 749 751 752 774 791 817 799 777 780 765 754 762 789 784
846 842 837 832 828 823 817 810 803 797 790 789 779 768 766 770 762 757 748 752 748 753 742 744 754 751 760 770 768 774 764 759 750 755 754 763 791 785 782 775 773 775 774 767 774 769 784
846 842 837 833 829 824 818 811 804 795 788 787 785 785 772 768 753 754 759 756 756 753 754 763 769 760 764 786 785 789 778 777 773 765 769 767 796 789 796 778 778 785 779 784 787 779 773
846 842 837 833 829 824 819 814 807 799 792 791 791 786 783 770 762 760 763 761 761 760 758 758 766 772 778 779 771 768 766 765 767 773 778 778 789 800 815 789 789 806 811 806 798 799 807
845 842 838 834 830 826 821 817 812 807 804 803 798 794 789 783 769 769 764 760 770 772 777 767 765 776 775 765 762 759 759 761 762 765 762 780 789 796 814 806 830 818 802 798 799 806 806
845 841 838 835 831 827 823 819 814 810 806 803 801 799 794 794 773 768 767 769 768 772 775 770 771 771 767 768 781 781 780 773 763 757 763 766 783 806 821 821 804 806 807 810 814 810 803
844 841 838 835 831 828 824 820 816 811 806 803 803 800 797 796 788 777 779 774 782 781 776 771 767 766 767 779 784 793 797 780 787 780 771 777 785 806 811 821 829 827 805 796 798 822 801
844 841 838 835 832 829 825 822 817 813 809 806 803 802 798 797 785 781 788 789 780 781 783 778 776 774 765 784 791 791 796 774 801 799 801 804 805 812 815 816 829 811 799 792 826 835 807
843 840 838 835 832 829 826 823 819 815 811 807 805 804 802 800 788 784 783 787 786 788 796 785 784 785 785 792 794 793 796 791 794 789 793 807 816 822 819 823 837 809 803 822 824 812 809
842 840 837 835 832 830 827 824 821 817 813 810 807 804 802 801 792 788 787 787 786 786 789 785 787 787 792 798 795 791 799 795 799 811 786 819 813 820 823 828 822 816 816 814 811 811 808